TCISK LQSA-LTFG

Flight info

Callsign TCISK
Flight time 1h 51m
Altitude 39000
Route MITNO DCT VABEK UL603 OLOTA DCT RUGAS UN128 LMO UN127 IMR UN135 AYT UT277 UTUSO
Aircraft C750/M-SBDE3FGHRWXY/S

Departure

Time 2026-05-07 16:02
Airport Sarajevo International Airport (LQSA)

Arrival

Time 2026-05-07 17:54
Airport Gazipaşa-Alanya Airport (LTFG)
Time Latitude Longitude Altitude Speed Heading
2026-05-07 15:53 43.82565 18.33443 1675 ft 0 kts 216°
2026-05-07 16:01 43.82554 18.33402 1678 ft 11 kts 271°
2026-05-07 16:01 43.82543 18.33286 1685 ft 13 kts 248°
2026-05-07 16:01 43.82500 18.33151 1680 ft 9 kts 233°
2026-05-07 16:01 43.82447 18.33180 1685 ft 14 kts 117°
2026-05-07 16:02 43.82287 18.33608 1692 ft 102 kts 117°
2026-05-07 16:02 43.81871 18.34693 2074 ft 131 kts 122°
2026-05-07 16:02 43.81414 18.35860 2690 ft 146 kts 120°
2026-05-07 16:02 43.80914 18.37147 3294 ft 158 kts 119°
2026-05-07 16:03 43.80391 18.38543 3932 ft 169 kts 117°
2026-05-07 16:03 43.79881 18.40024 4698 ft 175 kts 117°
2026-05-07 16:03 43.79355 18.41579 5451 ft 184 kts 121°
2026-05-07 16:03 43.78731 18.43262 5803 ft 206 kts 126°
2026-05-07 16:04 43.78080 18.45014 6725 ft 203 kts 123°
2026-05-07 16:04 43.77430 18.46778 7668 ft 208 kts 124°
2026-05-07 16:04 43.76757 18.48594 8541 ft 215 kts 122°
2026-05-07 16:04 43.76076 18.50458 9455 ft 223 kts 119°
2026-05-07 16:05 43.75787 18.52704 9775 ft 260 kts 92°
2026-05-07 16:05 43.75905 18.55335 10133 ft 287 kts 86°
2026-05-07 16:05 43.76045 18.58210 10464 ft 311 kts 88°
2026-05-07 16:05 43.76098 18.61324 10711 ft 336 kts 90°
2026-05-07 16:06 43.76138 18.64690 10859 ft 362 kts 89°
2026-05-07 16:06 43.76224 18.68246 11353 ft 371 kts 88°
2026-05-07 16:06 43.76321 18.71814 12172 ft 373 kts 89°
2026-05-07 16:06 43.76398 18.75445 12715 ft 381 kts 89°
2026-05-07 16:07 43.76465 18.79063 13527 ft 381 kts 89°
2026-05-07 16:07 43.76543 18.82765 14124 ft 387 kts 89°
2026-05-07 16:07 43.76626 18.86514 14738 ft 391 kts 89°
2026-05-07 16:07 43.76703 18.90293 15397 ft 393 kts 89°
2026-05-07 16:08 43.76776 18.94102 15960 ft 399 kts 90°
2026-05-07 16:08 43.76826 18.96666 16348 ft 403 kts 90°
2026-05-07 16:08 43.76928 19.01826 17216 ft 407 kts 90°
2026-05-07 16:08 43.77003 19.05777 17851 ft 412 kts 90°
2026-05-07 16:09 43.77052 19.08418 18325 ft 415 kts 90°
2026-05-07 16:09 43.77126 19.12430 18908 ft 419 kts 90°
2026-05-07 16:09 43.77200 19.16479 19512 ft 424 kts 90°
2026-05-07 16:09 43.77240 19.20582 20075 ft 428 kts 93°
2026-05-07 16:10 43.76626 19.24588 20568 ft 427 kts 114°
2026-05-07 16:10 43.75185 19.28146 21227 ft 421 kts 129°
2026-05-07 16:10 43.73419 19.31396 21839 ft 425 kts 132°
2026-05-07 16:10 43.71599 19.34639 22461 ft 429 kts 132°
2026-05-07 16:11 43.69777 19.37947 23057 ft 434 kts 131°
2026-05-07 16:11 43.67962 19.41306 23676 ft 438 kts 131°
2026-05-07 16:11 43.66118 19.44683 24156 ft 442 kts 131°
2026-05-07 16:11 43.64262 19.48033 24619 ft 446 kts 131°
2026-05-07 16:12 43.62370 19.51457 25129 ft 450 kts 131°
2026-05-07 16:12 43.60466 19.54926 25634 ft 454 kts 131°
2026-05-07 16:12 43.58541 19.58431 26136 ft 458 kts 131°
2026-05-07 16:12 43.56600 19.61941 26624 ft 462 kts 131°
2026-05-07 16:13 43.54639 19.65479 27090 ft 466 kts 130°
2026-05-07 16:13 43.52655 19.69064 27572 ft 471 kts 130°
2026-05-07 16:13 43.50687 19.72624 28070 ft 475 kts 130°
2026-05-07 16:13 43.48673 19.76253 28579 ft 479 kts 130°
2026-05-07 16:14 43.46638 19.79913 29073 ft 482 kts 130°
2026-05-07 16:14 43.44589 19.83595 29551 ft 486 kts 130°
2026-05-07 16:14 43.42524 19.87305 29987 ft 491 kts 130°
2026-05-07 16:14 43.40430 19.91061 30377 ft 495 kts 130°
2026-05-07 16:15 43.38326 19.94831 30864 ft 497 kts 130°
2026-05-07 16:15 43.36211 19.98615 31406 ft 497 kts 130°
2026-05-07 16:15 43.34132 20.02329 32046 ft 495 kts 130°
2026-05-07 16:15 43.32030 20.06080 32653 ft 494 kts 130°
2026-05-07 16:16 43.29930 20.09822 33278 ft 493 kts 130°
2026-05-07 16:16 43.27835 20.13550 33921 ft 492 kts 130°
2026-05-07 16:16 43.25768 20.17225 34490 ft 490 kts 130°
2026-05-07 16:16 43.23689 20.20917 35168 ft 485 kts 130°
2026-05-07 16:17 43.21624 20.24579 35822 ft 483 kts 131°
2026-05-07 16:17 43.19568 20.28216 36303 ft 484 kts 131°
2026-05-07 16:17 43.17506 20.31862 36792 ft 484 kts 131°
2026-05-07 16:17 43.15445 20.35504 37315 ft 483 kts 131°
2026-05-07 16:18 43.13381 20.39145 37761 ft 485 kts 131°
2026-05-07 16:18 43.11310 20.42794 38241 ft 485 kts 131°
2026-05-07 16:18 43.09236 20.46446 38756 ft 485 kts 132°
2026-05-07 16:18 43.07168 20.50082 39061 ft 485 kts 131°
2026-05-07 16:19 43.05067 20.53761 39059 ft 497 kts 131°
2026-05-07 16:19 43.00739 20.61317 39077 ft 516 kts 133°
2026-05-07 16:20 42.95605 20.68318 39077 ft 527 kts 141°
2026-05-07 16:20 42.90201 20.75274 39086 ft 538 kts 139°
2026-05-07 16:21 42.84838 20.82367 39092 ft 541 kts 140°
2026-05-07 16:21 42.79329 20.89442 39099 ft 543 kts 140°
2026-05-07 16:22 42.73882 20.96573 39103 ft 543 kts 140°
2026-05-07 16:22 42.68420 21.03588 39106 ft 543 kts 140°
2026-05-07 16:23 42.62944 21.10686 39109 ft 543 kts 140°
2026-05-07 16:23 42.57425 21.17766 39097 ft 546 kts 140°
2026-05-07 16:24 42.51937 21.24824 39097 ft 546 kts 140°
2026-05-07 16:24 42.46394 21.31913 39093 ft 546 kts 140°
2026-05-07 16:25 42.40865 21.38976 39094 ft 546 kts 140°
2026-05-07 16:25 42.35328 21.46028 39097 ft 548 kts 140°
2026-05-07 16:26 42.29764 21.53096 39100 ft 548 kts 140°
2026-05-07 16:26 42.24234 21.60106 39098 ft 547 kts 140°
2026-05-07 16:27 42.18761 21.67327 39094 ft 549 kts 139°
2026-05-07 16:27 42.13324 21.74511 39100 ft 549 kts 139°
2026-05-07 16:28 42.07875 21.81747 39086 ft 548 kts 139°
2026-05-07 16:28 42.02399 21.88967 39096 ft 551 kts 139°
2026-05-07 16:29 41.96918 21.96195 39101 ft 552 kts 139°
2026-05-07 16:29 41.91459 22.03364 39102 ft 552 kts 139°
2026-05-07 16:30 41.85957 22.10577 39105 ft 552 kts 140°
2026-05-07 16:30 41.80445 22.17782 39101 ft 555 kts 140°
2026-05-07 16:31 41.74943 22.24958 39108 ft 556 kts 140°
2026-05-07 16:31 41.69379 22.32196 39110 ft 556 kts 140°
2026-05-07 16:32 41.63826 22.39400 39113 ft 556 kts 140°
2026-05-07 16:32 41.58270 22.46591 39116 ft 556 kts 140°
2026-05-07 16:33 41.52683 22.53801 39122 ft 559 kts 140°
2026-05-07 16:33 41.47119 22.60968 39128 ft 560 kts 140°
2026-05-07 16:34 41.41496 22.68189 39125 ft 560 kts 140°
2026-05-07 16:34 41.35869 22.75400 39132 ft 560 kts 140°
2026-05-07 16:35 41.29938 22.81901 39116 ft 551 kts 151°
2026-05-07 16:35 41.23412 22.87330 39139 ft 554 kts 153°
2026-05-07 16:36 41.16995 22.93046 39144 ft 556 kts 151°
2026-05-07 16:36 41.10684 22.99018 39124 ft 562 kts 142°
2026-05-07 16:37 41.05586 23.06854 39131 ft 570 kts 127°
2026-05-07 16:37 41.01403 23.15845 39133 ft 572 kts 122°
2026-05-07 16:38 40.96985 23.24614 39128 ft 573 kts 129°
2026-05-07 16:38 40.92430 23.33277 39132 ft 575 kts 124°
2026-05-07 16:39 40.88037 23.42106 39125 ft 575 kts 127°
2026-05-07 16:39 40.83493 23.50722 39122 ft 571 kts 126°
2026-05-07 16:40 40.79088 23.59452 39121 ft 571 kts 127°
2026-05-07 16:40 40.74581 23.68033 39116 ft 571 kts 127°
2026-05-07 16:41 40.70120 23.76741 39101 ft 572 kts 126°
2026-05-07 16:41 40.65606 23.85360 39109 ft 574 kts 127°
2026-05-07 16:42 40.61097 23.94053 39104 ft 575 kts 126°
2026-05-07 16:42 40.56545 24.02738 39102 ft 575 kts 127°
2026-05-07 16:43 40.52034 24.11352 39101 ft 573 kts 126°
2026-05-07 16:43 40.47492 24.19985 39100 ft 574 kts 127°
2026-05-07 16:44 40.42944 24.28609 39100 ft 574 kts 127°
2026-05-07 16:44 40.38409 24.37187 39099 ft 574 kts 127°
2026-05-07 16:45 40.33863 24.45762 39094 ft 572 kts 127°
2026-05-07 16:45 40.29292 24.54358 39100 ft 575 kts 127°
2026-05-07 16:46 40.24712 24.62950 39101 ft 576 kts 127°
2026-05-07 16:46 40.20123 24.71534 39102 ft 576 kts 127°
2026-05-07 16:47 40.15551 24.80063 39100 ft 576 kts 127°
2026-05-07 16:47 40.10940 24.88642 39100 ft 576 kts 127°
2026-05-07 16:48 40.06327 24.97199 39099 ft 576 kts 127°
2026-05-07 16:48 40.01722 25.05722 39107 ft 572 kts 127°
2026-05-07 16:49 39.97151 25.14155 39104 ft 573 kts 127°
2026-05-07 16:49 39.92486 25.22596 39091 ft 572 kts 131°
2026-05-07 16:50 39.86831 25.29779 39097 ft 567 kts 143°
2026-05-07 16:50 39.80736 25.36304 39112 ft 568 kts 141°
2026-05-07 16:51 39.74882 25.43235 39114 ft 568 kts 142°
2026-05-07 16:51 39.68874 25.49815 39105 ft 570 kts 142°
2026-05-07 16:52 39.62938 25.56654 39107 ft 570 kts 141°
2026-05-07 16:52 39.56902 25.63356 39109 ft 569 kts 142°
2026-05-07 16:53 39.50974 25.70062 39111 ft 567 kts 141°
2026-05-07 16:53 39.45018 25.76707 39118 ft 569 kts 142°
2026-05-07 16:54 39.39012 25.83426 39117 ft 571 kts 142°
2026-05-07 16:54 39.34007 25.89013 39120 ft 571 kts 142°
2026-05-07 16:55 39.26986 25.96794 39119 ft 570 kts 142°
2026-05-07 16:55 39.21855 26.02245 39122 ft 569 kts 143°
2026-05-07 16:56 39.15804 26.08744 39126 ft 569 kts 142°
2026-05-07 16:56 39.06609 26.18563 39125 ft 572 kts 143°
2026-05-07 16:57 39.00481 26.25135 39129 ft 572 kts 143°
2026-05-07 16:57 38.94353 26.31636 39131 ft 571 kts 143°
2026-05-07 16:58 38.88268 26.38108 39132 ft 571 kts 143°
2026-05-07 16:58 38.82141 26.44666 39112 ft 575 kts 141°
2026-05-07 16:59 38.76114 26.51442 39110 ft 576 kts 141°
2026-05-07 16:59 38.70068 26.58192 39108 ft 572 kts 141°
2026-05-07 17:00 38.64114 26.64852 39113 ft 571 kts 141°
2026-05-07 17:00 38.58087 26.71555 39102 ft 573 kts 141°
2026-05-07 17:01 38.52077 26.78242 39110 ft 576 kts 141°
2026-05-07 17:01 38.46010 26.84964 39110 ft 577 kts 141°
2026-05-07 17:02 38.39976 26.91642 39113 ft 573 kts 141°
2026-05-07 17:02 38.34037 26.98436 39114 ft 574 kts 135°
2026-05-07 17:03 38.29369 27.06619 39115 ft 576 kts 118°
2026-05-07 17:03 38.26226 27.16005 39135 ft 578 kts 108°
2026-05-07 17:04 38.23426 27.25524 39113 ft 573 kts 112°
2026-05-07 17:04 38.19981 27.34692 39120 ft 574 kts 114°
2026-05-07 17:05 38.16895 27.44038 39122 ft 574 kts 111°
2026-05-07 17:05 38.13637 27.53208 39123 ft 570 kts 114°
2026-05-07 17:06 38.10451 27.62464 39125 ft 571 kts 111°
2026-05-07 17:06 38.07245 27.71640 39129 ft 571 kts 113°
2026-05-07 17:07 38.04008 27.80852 39128 ft 571 kts 112°
2026-05-07 17:07 38.00500 27.89895 39127 ft 571 kts 117°
2026-05-07 17:08 37.97199 27.99059 39128 ft 571 kts 111°
2026-05-07 17:08 37.94074 28.08251 39137 ft 569 kts 113°
2026-05-07 17:09 37.90833 28.17352 39133 ft 565 kts 112°
2026-05-07 17:09 37.87678 28.26502 39137 ft 567 kts 112°
2026-05-07 17:10 37.84435 28.35628 39142 ft 568 kts 112°
2026-05-07 17:10 37.81281 28.44647 39152 ft 563 kts 113°
2026-05-07 17:11 37.78073 28.53681 39153 ft 562 kts 113°
2026-05-07 17:11 37.74873 28.62731 39157 ft 564 kts 113°
2026-05-07 17:12 37.71660 28.71753 39164 ft 562 kts 113°
2026-05-07 17:12 37.68405 28.80724 39174 ft 562 kts 114°
2026-05-07 17:13 37.65146 28.89703 39168 ft 562 kts 114°
2026-05-07 17:13 37.61884 28.98668 39173 ft 560 kts 114°
2026-05-07 17:14 37.58620 29.07596 39181 ft 561 kts 114°
2026-05-07 17:14 37.55349 29.16534 39181 ft 561 kts 114°
2026-05-07 17:15 37.52094 29.25386 39189 ft 561 kts 114°
2026-05-07 17:15 37.48816 29.34292 39171 ft 561 kts 114°
2026-05-07 17:16 37.45514 29.43220 39172 ft 561 kts 114°
2026-05-07 17:16 37.42124 29.52030 39172 ft 560 kts 115°
2026-05-07 17:17 37.38729 29.60836 39182 ft 558 kts 114°
2026-05-07 17:17 37.35369 29.69574 39180 ft 559 kts 115°
2026-05-07 17:18 37.31846 29.78282 39182 ft 559 kts 116°
2026-05-07 17:18 37.28314 29.87020 39189 ft 558 kts 116°
2026-05-07 17:19 37.24752 29.95651 39182 ft 559 kts 116°
2026-05-07 17:19 37.21305 30.04387 39179 ft 558 kts 114°
2026-05-07 17:20 37.17909 30.13162 39176 ft 558 kts 115°
2026-05-07 17:20 37.14545 30.21891 39170 ft 558 kts 114°
2026-05-07 17:21 37.11146 30.30664 39159 ft 559 kts 115°
2026-05-07 17:21 37.07741 30.39428 39158 ft 558 kts 115°
2026-05-07 17:22 37.04366 30.48104 39132 ft 557 kts 115°
2026-05-07 17:22 37.00958 30.56823 39114 ft 557 kts 115°
2026-05-07 17:23 36.97610 30.65375 38697 ft 529 kts 115°
2026-05-07 17:23 36.95997 30.69476 38112 ft 509 kts 115°
2026-05-07 17:23 36.94479 30.73345 37562 ft 497 kts 114°
2026-05-07 17:24 36.92958 30.77221 36749 ft 497 kts 114°
2026-05-07 17:24 36.91464 30.81135 35955 ft 496 kts 111°
2026-05-07 17:24 36.90365 30.85223 35182 ft 494 kts 101°
2026-05-07 17:24 36.89788 30.89442 34440 ft 490 kts 92°
2026-05-07 17:25 36.89848 30.93605 33601 ft 482 kts 77°
2026-05-07 17:25 36.90649 30.97645 32822 ft 476 kts 68°
2026-05-07 17:25 36.91904 31.01453 32055 ft 471 kts 58°
2026-05-07 17:25 36.93597 31.04930 31318 ft 466 kts 49°
2026-05-07 17:26 36.95686 31.08005 30592 ft 463 kts 40°
2026-05-07 17:26 36.98091 31.10591 29820 ft 450 kts 32°
2026-05-07 17:26 37.00719 31.12630 28995 ft 440 kts 23°
2026-05-07 17:26 37.03497 31.14113 28190 ft 430 kts 15°
2026-05-07 17:27 37.06357 31.15043 27406 ft 421 kts
2026-05-07 17:27 37.09236 31.15433 26649 ft 413 kts 359°
2026-05-07 17:27 37.12082 31.15304 25905 ft 406 kts 352°
2026-05-07 17:27 37.14817 31.14685 25240 ft 388 kts 344°
2026-05-07 17:28 37.17370 31.13635 25143 ft 392 kts 337°
2026-05-07 17:28 37.19834 31.12140 25152 ft 396 kts 330°
2026-05-07 17:28 37.22126 31.10219 25153 ft 396 kts 323°
2026-05-07 17:28 37.24193 31.07907 25153 ft 399 kts 315°
2026-05-07 17:29 37.25993 31.05239 25143 ft 400 kts 308°
2026-05-07 17:29 37.27465 31.02310 25157 ft 403 kts 301°
2026-05-07 17:29 37.28724 30.99158 25159 ft 404 kts 298°
2026-05-07 17:29 37.29988 30.96007 25169 ft 404 kts 299°
2026-05-07 17:30 37.31264 30.92851 25151 ft 403 kts 299°
2026-05-07 17:30 37.32507 30.89736 24836 ft 402 kts 298°
2026-05-07 17:30 37.33755 30.86590 24633 ft 405 kts 298°
2026-05-07 17:30 37.34868 30.83357 24408 ft 406 kts 292°
2026-05-07 17:31 37.35601 30.79934 24181 ft 408 kts 284°
2026-05-07 17:31 37.35945 30.76384 23947 ft 410 kts 276°
2026-05-07 17:31 37.35883 30.72798 23708 ft 411 kts 269°
2026-05-07 17:31 37.35409 30.69238 23424 ft 414 kts 261°
2026-05-07 17:32 37.34525 30.65780 23145 ft 415 kts 252°
2026-05-07 17:32 37.33248 30.62512 22874 ft 418 kts 244°
2026-05-07 17:32 37.31614 30.59522 22600 ft 421 kts 236°
2026-05-07 17:32 37.30303 30.57661 22408 ft 422 kts 230°
2026-05-07 17:33 37.27312 30.54508 22040 ft 425 kts 218°
2026-05-07 17:33 37.24749 30.52642 21781 ft 427 kts 210°
2026-05-07 17:33 37.21970 30.51267 21517 ft 429 kts 200°
2026-05-07 17:33 37.19055 30.50430 21263 ft 430 kts 192°
2026-05-07 17:34 37.16072 30.50150 20979 ft 430 kts 182°
2026-05-07 17:34 37.13119 30.50429 20722 ft 431 kts 174°
2026-05-07 17:34 37.10200 30.51268 20459 ft 431 kts 165°
2026-05-07 17:34 37.07414 30.52644 20196 ft 430 kts 155°
2026-05-07 17:35 37.04850 30.54507 19923 ft 414 kts 146°
2026-05-07 17:35 37.02593 30.56759 19908 ft 421 kts 137°
2026-05-07 17:35 37.00585 30.59440 19907 ft 425 kts 128°
2026-05-07 17:35 36.98899 30.62493 19903 ft 426 kts 119°
2026-05-07 17:36 36.97539 30.65789 19906 ft 427 kts 115°
2026-05-07 17:36 36.96232 30.69079 19911 ft 427 kts 115°
2026-05-07 17:36 36.94893 30.72402 19914 ft 427 kts 115°
2026-05-07 17:36 36.93558 30.75735 19909 ft 428 kts 115°
2026-05-07 17:37 36.92226 30.79061 19911 ft 428 kts 116°
2026-05-07 17:37 36.90663 30.82242 19898 ft 429 kts 122°
2026-05-07 17:37 36.89048 30.85387 19899 ft 429 kts 121°
2026-05-07 17:37 36.87455 30.88544 19900 ft 429 kts 121°
2026-05-07 17:38 36.85864 30.91696 19905 ft 429 kts 121°
2026-05-07 17:38 36.84281 30.94798 19912 ft 429 kts 121°
2026-05-07 17:38 36.82672 30.97938 19911 ft 429 kts 121°
2026-05-07 17:38 36.81069 31.01082 19899 ft 429 kts 121°
2026-05-07 17:39 36.79466 31.04231 19898 ft 429 kts 121°
2026-05-07 17:39 36.77859 31.07375 19904 ft 429 kts 121°
2026-05-07 17:39 36.76252 31.10512 19903 ft 429 kts 121°
2026-05-07 17:39 36.74644 31.13652 19580 ft 426 kts 121°
2026-05-07 17:40 36.73089 31.16686 19042 ft 418 kts 122°
2026-05-07 17:40 36.71520 31.19747 18490 ft 417 kts 122°
2026-05-07 17:40 36.69960 31.22782 17903 ft 413 kts 122°
2026-05-07 17:40 36.68936 31.24774 17552 ft 411 kts 122°
2026-05-07 17:41 36.67401 31.27757 17004 ft 407 kts 122°
2026-05-07 17:41 36.65386 31.31672 16294 ft 401 kts 121°
2026-05-07 17:41 36.63887 31.34581 15766 ft 397 kts 121°
2026-05-07 17:41 36.62401 31.37462 15247 ft 393 kts 121°
2026-05-07 17:42 36.61424 31.39354 14906 ft 390 kts 121°
2026-05-07 17:42 36.59964 31.42181 14398 ft 385 kts 121°
2026-05-07 17:42 36.58520 31.44975 13887 ft 381 kts 121°
2026-05-07 17:42 36.57092 31.47736 13354 ft 377 kts 121°
2026-05-07 17:43 36.55677 31.50471 12858 ft 373 kts 121°
2026-05-07 17:43 36.54278 31.53171 12375 ft 370 kts 121°
2026-05-07 17:43 36.52890 31.55846 11883 ft 366 kts 121°
2026-05-07 17:43 36.51536 31.58454 11409 ft 358 kts 121°
2026-05-07 17:44 36.50230 31.60964 10949 ft 332 kts 121°
2026-05-07 17:44 36.49015 31.63301 10518 ft 311 kts 121°
2026-05-07 17:44 36.47865 31.65514 10122 ft 299 kts 121°
2026-05-07 17:44 36.46749 31.67662 9715 ft 294 kts 121°
2026-05-07 17:45 36.45642 31.69788 9334 ft 292 kts 121°
2026-05-07 17:45 36.44543 31.71897 8958 ft 290 kts 121°
2026-05-07 17:45 36.43458 31.73970 8637 ft 289 kts 121°
2026-05-07 17:45 36.42362 31.76063 8305 ft 288 kts 121°
2026-05-07 17:46 36.41268 31.78150 7908 ft 289 kts 121°
2026-05-07 17:46 36.40179 31.80228 7524 ft 285 kts 121°
2026-05-07 17:46 36.39105 31.82277 7186 ft 282 kts 121°
2026-05-07 17:46 36.38036 31.84316 6854 ft 281 kts 121°
2026-05-07 17:47 36.36971 31.86344 6533 ft 280 kts 121°
2026-05-07 17:47 36.35909 31.88367 6195 ft 279 kts 121°
2026-05-07 17:47 36.34846 31.90389 5873 ft 279 kts 121°
2026-05-07 17:47 36.33788 31.92401 5546 ft 278 kts 121°
2026-05-07 17:48 36.32743 31.94387 5228 ft 278 kts 122°
2026-05-07 17:48 36.31687 31.96392 4900 ft 278 kts 122°
2026-05-07 17:48 36.30629 31.98400 4574 ft 277 kts 122°
2026-05-07 17:48 36.29576 32.00396 4252 ft 276 kts 122°
2026-05-07 17:49 36.28526 32.02389 3937 ft 275 kts 122°
2026-05-07 17:49 36.27524 32.04380 3605 ft 274 kts 117°
2026-05-07 17:49 36.27147 32.06610 3220 ft 258 kts 86°
2026-05-07 17:49 36.27364 32.08728 2997 ft 240 kts 78°
2026-05-07 17:50 36.27619 32.10727 2745 ft 230 kts 79°
2026-05-07 17:50 36.27852 32.12651 2471 ft 222 kts 79°
2026-05-07 17:50 36.28074 32.14516 2213 ft 215 kts 80°
2026-05-07 17:50 36.28290 32.16321 1965 ft 208 kts 80°
2026-05-07 17:51 36.28488 32.17987 1679 ft 179 kts 79°
2026-05-07 17:51 36.28659 32.19423 1458 ft 159 kts 78°
2026-05-07 17:51 36.28812 32.20697 1274 ft 147 kts 78°
2026-05-07 17:51 36.28966 32.21926 1150 ft 143 kts 79°
2026-05-07 17:52 36.29136 32.23123 1050 ft 138 kts 78°
2026-05-07 17:52 36.29254 32.24271 881 ft 131 kts 82°
2026-05-07 17:52 36.29372 32.25400 691 ft 132 kts 79°
2026-05-07 17:52 36.29508 32.26511 503 ft 132 kts 81°
2026-05-07 17:53 36.29642 32.27654 272 ft 135 kts 79°
2026-05-07 17:53 36.29783 32.28812 111 ft 133 kts 80°
2026-05-07 17:53 36.29917 32.29849 121 ft 107 kts 82°
2026-05-07 17:53 36.29996 32.30626 125 ft 67 kts 80°
2026-05-07 17:54 36.30027 32.30907 122 ft 7 kts 180°
2026-05-07 17:54 36.30015 32.30846 123 ft 12 kts 264°
2026-05-07 17:54 36.30004 32.30691 124 ft 24 kts 264°
2026-05-07 17:54 36.29975 32.30456 124 ft 31 kts 260°
2026-05-07 17:55 36.29945 32.30196 123 ft 25 kts 262°
2026-05-07 17:55 36.29894 32.30150 123 ft 9 kts 170°
2026-05-07 17:55 36.29837 32.30161 121 ft 7 kts 171°
2026-05-07 17:55 36.29835 32.30162 121 ft 0 kts 171°
2026-05-07 17:56 36.29832 32.30162 122 ft 2 kts 171°
2026-05-07 17:57 36.29818 32.30147 124 ft 6 kts 235°
2026-05-07 17:57 36.29813 32.30141 122 ft 2 kts 220°
2026-05-07 17:57 36.29806 32.30135 123 ft 0 kts 215°